GW1508 Weather Reports


time (UTC)temp
C
wind
direction
speed
KPH
gust
KPH
rain 1hr
cm
rain 24hr
cm
rain mn
cm
humidity
%
barometer
mb
20260905185821 17 292 1.6 16.1 0.00 0.00 0.00 59 1022.1
20260905182824 17 202 1.6 9.7 0.00 0.00 0.00 64 1021.9
20260905181316 17 215 0.0 11.3 0.00 0.00 0.00 66 1021.4
20260905174326 16 230 0.0 6.4 0.00 0.00 0.00 85 1021.1
20260905172824 15 97 0.0 0.0 0.00 0.00 0.00 90 1021.1
20260905165827 17 97 0.0 0.0 0.00 0.00 0.00 87 1020.9
20260905164326 17 97 0.0 0.0 0.00 0.00 0.00 86 1020.8
20260905161324 18 95 0.0 0.0 0.00 0.00 0.00 81 1020.7
20260905155813 18 94 0.0 3.2 0.00 0.00 0.00 81 1020.5
20260905152819 19 82 0.0 8.0 0.00 0.00 0.00 80 1020.5
20260905145824 21 175 0.0 3.2 0.00 0.00 0.00 75 1020.5
20260905142829 21 163 0.0 3.2 0.00 0.00 0.00 75 1020.5
20260905141318 21 36 0.0 3.2 0.00 0.00 0.00 73 1020.5
20260905134325 21 302 0.0 8.0 0.00 0.00 0.00 76 1020.5
20260905132817 20 271 0.0 9.7 0.00 0.00 0.00 77 1020.8
20260905125823 21 33 0.0 8.0 0.00 0.00 0.00 75 1021.0
20260905122827 20 93 3.2 14.5 0.00 0.00 0.00 74 1021.2
20260905121317 21 25 3.2 9.7 0.00 0.00 0.00 71 1021.3
20260905115810 21 96 0.0 11.3 0.00 0.00 0.00 68 1021.6
20260905112824 21 127 0.0 8.0 0.00 0.00 0.00 48 1021.7
20260905105823 21 128 0.0 12.9 0.00 0.00 0.00 49 1021.8
20260905102823 20 150 8.0 19.3 0.00 0.00 0.00 52 1021.6
20260905101315 20 263 4.8 14.5 0.00 0.00 0.00 53 1021.4
20260905095806 20 184 4.8 16.1 0.00 0.00 0.00 54 1021.3
20260905092823 19 246 3.2 9.7 0.00 0.00 0.00 55 1021.1
20260905091317 19 148 1.6 8.0 0.00 0.00 0.00 58 1020.9
20260905084323 18 190 1.6 9.7 0.00 0.00 0.00 62 1020.8
20260905081324 18 157 4.8 9.7 0.00 0.00 0.00 61 1020.5
20260905075817 18 171 4.8 11.3 0.00 0.00 0.00 61 1020.3
20260905072826 18 211 4.8 14.5 0.00 0.00 0.00 63 1020.1
20260905071316 18 96 6.4 12.9 0.00 0.00 0.00 63 1019.9
20260905064322 17 194 6.4 22.5 0.00 0.00 0.00 66 1019.9
20260905062818 16 245 6.4 19.3 0.00 0.00 0.00 70 1020.1
20260905055824 15 184 3.2 12.9 0.00 0.00 0.00 79 1020.6
20260905052826 14 36 1.6 8.0 0.00 0.00 0.00 81 1020.3
20260905051319 14 228 1.6 9.7 0.00 0.00 0.00 82 1020.5
20260905044324 15 53 1.6 9.7 0.00 0.00 0.00 80 1020.5
20260905041325 13 42 3.2 9.7 0.00 0.00 0.00 88 1020.5
20260905035818 11 53 0.0 3.2 0.00 0.00 0.00 93 1020.9
20260905032821 6 355 0.0 1.6 0.00 0.00 0.00 93 1021.4
20260905025824 3 350 0.0 0.0 0.00 0.00 0.00 94 1021.2
20260905024318 4 350 0.0 0.0 0.00 0.00 0.00 92 1021.1
20260905021318 6 350 0.0 0.0 0.00 0.00 0.00 91 1021.0
20260905014325 7 350 0.0 0.0 0.00 0.00 0.00 93 1020.8
20260905012813 8 350 0.0 0.0 0.00 0.00 0.00 88 1020.7
20260905005819 11 350 0.0 1.6 0.00 0.00 0.00 90 1021.0
20260905002825 11 103 0.0 1.6 0.00 0.00 0.00 90 1021.1
20260905001317 13 59 0.0 3.2 0.00 0.00 0.00 87 1021.2
20260904234323 11 254 0.0 6.4 0.00 0.00 0.00 94 1021.8
20260904231323 7 337 0.0 1.6 0.00 0.00 0.00 94 1021.9
20260904225816 8 335 0.0 0.0 0.00 0.00 0.00 92 1022.1
20260904224314 9 335 0.0 0.0 0.00 0.00 0.00 93 1022.2
20260904215832 9 107 0.0 3.2 0.00 0.00 0.00 93 1022.3
20260904214318 8 275 0.0 1.6 0.00 0.00 0.00 94 1022.2
20260904211321 8 274 0.0 0.0 0.00 0.00 0.00 93 1022.5
20260904204326 10 275 0.0 1.6 0.00 0.00 0.00 94 1022.8
20260904201327 8 333 0.0 0.0 0.00 0.00 0.00 95 1023.0
20260904195820 10 333 0.0 0.0 0.00 0.00 0.00 94 1023.2
20260904192831 7 19 0.0 3.2 0.00 0.00 0.00 94 1023.6